Simultaneous Nadir Overpasses (SNOs) Predictions

Prediction of SNOs between METOP-A and NOAA-19 Satellite Orbit:

Table of predicted SNOs for the next 14.0 days since TLE Epoch: 10/9/2021
Index Date (METOP-A) Time (METOP-A) Lat,Lon (METOP-A) SZA (METOP-A ) Date (NOAA-19) Time (NOAA-19) Lat,Lon (NOAA-19) SZA (NOAA-19 ) Distance(km) Time Diff (sec)
1 10/14/2021 07:50:18 -80.35,-118.35 91.43 10/14/2021 07:49:14 -80.36,-118.29 91.42 1.38 64
2 10/14/2021 08:40:57 80.39, 49.36 88.63 10/14/2021 08:40:17 80.39, 49.53 88.64 3.28 40
3 10/14/2021 09:31:38 -80.40,-143.22 91.35 10/14/2021 09:31:12 -80.40,-143.05 91.35 3.24 26
4 10/14/2021 10:22:18 80.40, 24.18 88.67 10/14/2021 10:22:17 80.40, 24.11 88.67 1.45 1
5 10/14/2021 11:12:59 -80.41,-168.40 91.31 10/14/2021 11:13:12 -80.41,-168.47 91.31 1.44 13
6 10/14/2021 12:03:39 80.42, -1.00 88.72 10/14/2021 12:04:16 80.42, -0.98 88.72 0.47 37
7 10/14/2021 12:54:20 -80.43, 166.43 91.27 10/14/2021 12:55:11 -80.43, 166.45 91.26 0.48 51



Historial Predications of SNOs between METOP-A and NOAA-19
